Skip Page Navigation
NASA JPL Caltech
NASA Logo - Jet Propulsion Laboratory + View the NASA Portal
+ Near-Earth Object (NEO) Program
Search JPL
JPL Home Earth Solar System Stars & Galaxies Technology
JPL Solar System Dynamics
BODIES ORBITS EPHEMERIDES TOOLS PHYSICAL DATA DISCOVERY FAQ SITE MAP
JPL Small-Body Database Browser
Search: [ help ]  
242216 (2003 RN10)
Classification: Amor [NEO, PHA]          SPK-ID: 2242216
Ephemeris | Orbit Diagram | Orbital Elements | Physical Parameters | Discovery Circumstances | Close-Approach Data ]

[ hide orbit diagram ]
Orbit Diagram
Note: Make sure you have Java enabled on your browser to see the applet. This applet is provided as a 3D orbit visualization tool. The applet was implemented using 2-body methods, and hence should not be used for determining accurate long-term trajectories (over several years or decades) or planetary encounter circumstances. For accurate long-term ephemerides, please instead use our Horizons system.
Orbit Viewer

Additional Notes: the orbits shown in the applet are color coded. The planets are white lines, and the asteroid/comet is a blue line. The bright white line indicates the portion of the orbit that is above the ecliptic plane, and the darker portion is below the ecliptic plane. Likewise for the asteroid/comet orbit, the light blue indicates the portion above the ecliptic plane, and the dark blue the portion below the ecliptic plane.

Orbit Viewer applet originally written and kindly provided by Osamu Ajiki (AstroArts), and further modified by Ron Baalke (JPL).


Orbital Elements at Epoch 2456400.5 (2013-Apr-18.0) TDB
Reference: JPL 56 (heliocentric ecliptic J2000)
 Element Value Uncertainty (1-sigma)   Units 
e .541494953104861 1.8125e-07  
a 2.229858255498731 6.219e-08 AU
q 1.022401264006958 3.9809e-07 AU
i 39.66326567551981 2.2439e-05 deg
node 267.2303848226551 3.0515e-05 deg
peri 4.593966084535682 3.7283e-05 deg
M 326.3221096464079 4.8962e-05 deg
tp 2456514.277579591270
(2013-Aug-09.77757959)
0.00017013 JED
period 1216.226082536913
3.33
5.088e-05
1.393e-07
d
yr
n .2959975987762735 1.2383e-08 deg/d
Q 3.437315246990503 9.5866e-08 AU
  Orbit Determination Parameters
   # obs. used (total)      236  
   data-arc span      3485 days (9.54 yr)  
   first obs. used      2003-09-13  
   last obs. used      2013-03-29  
   planetary ephem.      DE405  
   SB-pert. ephem.      SB405-CPV-2  
   condition code      0  
   fit RMS      .61711  
   data source      ORB  
   producer      Otto Matic  
   solution date      2013-Apr-29 15:37:16  

Additional Information
 Earth MOID = .00780436 AU 
 T_jup = 3.181 
[ show covariance matrix ]

Ephemeris | Orbit Diagram | Orbital Elements | Physical Parameters | Discovery Circumstances | Close-Approach Data ]

Physical Parameter Table
Parameter Symbol Value Units Sigma Reference Notes
absolute magnitude H 15.664 mag .57737 56 autocmod 2.5c

242216 (2003 RN10)          Discovered 2003-Sep-13 by LONEOS at Anderson Mesa (699)
Reference: 20100626/Numbers.arcLast Updated: 2010-06-28

[ show close-approach data ]
Ephemeris | Orbit Diagram | Orbital Elements | Physical Parameters | Discovery Circumstances | Close-Approach Data ]
ABOUT SSD CREDITS/AWARDS PRIVACY/COPYRIGHT GLOSSARY LINKS
FirstGov 2013-May-23 14:39 UT
(server date/time)  
NASA Home Page
Site Manager:   Donald K. Yeomans
Webmaster  Alan B. Chamberlin